Volver al catálogo

DUMMY MASS 1

ActivoCienciaPO
NORAD 24925·PAYLOAD·🇨🇳 China

Lanzado Sep 1, 1997 desde Taiyuan Satellite Launch Center

Loading…

Próximos Pases (próximas 24 horas)

TLE

ActualizadoSource: Space-Track

Época: Sep 14, 2026, 01:11 UTC

1 24925U 97048A   26257.04940491  .00000244  00000-0  23871-4 0  9998
2 24925  86.3298 285.2952 0006018 358.1234   1.9967 14.87390096572580

Sigue DUMMY MASS 1 en tiempo real con AllMySat

Download on the App Store